Location: Campillo
(40.8621°N, 4.2488°W)
Time: 16:36:17
(UTC+00:00)

USA 245 - Visible Passes

Search period start: 25 September 2021 00:00
Search period end: 05 October 2021 00:00
Orbit: 269 x 1014 km, 97.9° (Epoch: 23 September)

Date Brightness Start Highest point End Pass type
(mag) Time Alt. Az. Time Alt. Az. Time Alt. Az.
25 Sep 6.3 21:04:47 13° N 21:04:47 13° N 21:05:22 10° N visible
26 Sep 6.5 21:28:58 13° N 21:28:58 13° N 21:29:33 10° N visible
27 Sep 6.8 21:53:08 12° NNW 21:53:08 12° NNW 21:53:27 10° NNW visible
28 Sep 6.2 20:39:41 13° NNE 20:39:41 13° NNE 20:40:25 10° N visible
29 Sep 6.3 21:03:51 15° N 21:03:51 15° N 21:04:49 10° N visible
30 Sep 6.5 21:28:00 15° N 21:28:00 15° N 21:28:56 10° N visible
01 Oct 6.3 20:14:32 11° NNE 20:14:32 11° NNE 20:15:01 10° NNE visible
01 Oct 6.8 21:52:08 13° NNW 21:52:08 13° NNW 21:52:48 10° NNW visible
02 Oct 6.3 20:38:40 15° NNE 20:38:40 15° NNE 20:39:46 10° N visible
02 Oct 7.0 22:16:16 11° NNW 22:16:16 11° NNW 22:16:24 10° NNW visible
03 Oct 6.3 21:02:48 16° N 21:02:48 16° N 21:04:04 10° N visible
04 Oct 6.5 21:26:55 16° N 21:26:55 16° N 21:28:06 10° N visible
